Hourly Weather Fier

Today, 25 September, Friday

Time Temperature Precipitation Wind Pressure Humidity
00:00 +23°C° 0 mm 2 mps 759 mmHg 68%
01:00 +21°C° 0 mm 3 mps 759 mmHg 69%
02:00 +21°C° 0 mm 3 mps 758 mmHg 68%
03:00 +21°C° 0 mm 3 mps 758 mmHg 67%
04:00 +21°C° 0 mm 3 mps 758 mmHg 67%
05:00 +22°C° 0 mm 3 mps 757 mmHg 64%
06:00 +22°C° 0 mm 3 mps 757 mmHg 60%
07:00 +23°C° 0 mm 4 mps 757 mmHg 58%
08:00 +26°C° 0 mm 5 mps 757 mmHg 52%
09:00 +28°C° 0 mm 6 mps 756 mmHg 47%
10:00 +30°C° 0 mm 7 mps 756 mmHg 42%
11:00 +32°C° 0 mm 8 mps 756 mmHg 41%
12:00 +32°C° 0 mm 9 mps 755 mmHg 39%
13:00 +33°C° 0 mm 10 mps 754 mmHg 38%
14:00 +32°C° 0 mm 10 mps 754 mmHg 41%
15:00 +32°C° 0 mm 9 mps 753 mmHg 43%
16:00 +31°C° 0 mm 9 mps 753 mmHg 45%
17:00 +29°C° 0 mm 9 mps 752 mmHg 52%
18:00 +27°C° 0 mm 9 mps 752 mmHg 59%
19:00 +26°C° 0 mm 8 mps 752 mmHg 66%
20:00 +26°C° 0.9 mm 8 mps 751 mmHg 69%
21:00 +24°C° 0.9 mm 8 mps 751 mmHg 72%
22:00 +24°C° 0.9 mm 8 mps 751 mmHg 75%
23:00 +24°C° 0.5 mm 8 mps 750 mmHg 76%

Tomorrow, 26 September, Saturday

Time Temperature Precipitation Wind Pressure Humidity
00:00 +23°C° 0.5 mm 7 mps 750 mmHg 76%
01:00 +23°C° 0.5 mm 6 mps 749 mmHg 77%
02:00 +23°C° 1.1 mm 6 mps 749 mmHg 77%
03:00 +22°C° 1.1 mm 6 mps 749 mmHg 76%
04:00 +22°C° 1.1 mm 6 mps 749 mmHg 76%
05:00 +21°C° 0.7 mm 5 mps 749 mmHg 74%
06:00 +21°C° 0.7 mm 4 mps 749 mmHg 72%
07:00 +20°C° 0.7 mm 3 mps 748 mmHg 70%
08:00 +20°C° 1.1 mm 4 mps 749 mmHg 68%
09:00 +21°C° 1.1 mm 5 mps 749 mmHg 66%
10:00 +21°C° 1.1 mm 6 mps 749 mmHg 64%
11:00 +21°C° 1.3 mm 7 mps 749 mmHg 64%
12:00 +21°C° 1.3 mm 7 mps 749 mmHg 63%
13:00 +21°C° 1.3 mm 8 mps 749 mmHg 62%
14:00 +21°C° 0.5 mm 8 mps 749 mmHg 60%
15:00 +21°C° 0.5 mm 8 mps 749 mmHg 58%
16:00 +21°C° 0.5 mm 8 mps 749 mmHg 56%
17:00 +20°C° 0.3 mm 8 mps 749 mmHg 58%
18:00 +20°C° 0.3 mm 8 mps 750 mmHg 60%
19:00 +18°C° 0.3 mm 7 mps 750 mmHg 61%
20:00 +18°C° 0.2 mm 7 mps 751 mmHg 63%
21:00 +18°C° 0.2 mm 7 mps 751 mmHg 64%
22:00 +17°C° 0.2 mm 7 mps 752 mmHg 65%
23:00 +17°C° 0.3 mm 6 mps 752 mmHg 67%

Day after tomorrow, 27 September, Sunday

Time Temperature Precipitation Wind Pressure Humidity
00:00 +16°C° 0.3 mm 6 mps 752 mmHg 69%
01:00 +16°C° 0.3 mm 5 mps 752 mmHg 72%
02:00 +16°C° 0.4 mm 5 mps 753 mmHg 72%
03:00 +16°C° 0.4 mm 5 mps 753 mmHg 73%
04:00 +16°C° 0.4 mm 5 mps 753 mmHg 73%
05:00 +17°C° 0.3 mm 5 mps 753 mmHg 71%
06:00 +19°C° 0.3 mm 5 mps 754 mmHg 69%
07:00 +19°C° 0.3 mm 5 mps 754 mmHg 67%
08:00 +21°C° 0.1 mm 5 mps 755 mmHg 61%
09:00 +22°C° 0.1 mm 5 mps 755 mmHg 55%
10:00 +23°C° 0.1 mm 5 mps 755 mmHg 49%
11:00 +24°C° 0.1 mm 6 mps 756 mmHg 50%
12:00 +24°C° 0.1 mm 7 mps 756 mmHg 51%
13:00 +24°C° 0.1 mm 8 mps 756 mmHg 52%
14:00 +24°C° 0 mm 8 mps 756 mmHg 53%
15:00 +24°C° 0 mm 8 mps 756 mmHg 54%
16:00 +23°C° 0 mm 8 mps 756 mmHg 55%
17:00 +22°C° 0.1 mm 7 mps 756 mmHg 59%
18:00 +21°C° 0.1 mm 7 mps 756 mmHg 64%
19:00 +20°C° 0.1 mm 7 mps 756 mmHg 68%
20:00 +20°C° 0.1 mm 7 mps 756 mmHg 69%
21:00 +20°C° 0.1 mm 7 mps 757 mmHg 70%
22:00 +18°C° 0.1 mm 7 mps 757 mmHg 70%
23:00 +18°C° 3.1 mm 7 mps 756 mmHg 75%

28 September, Monday

Time Temperature Precipitation Wind Pressure Humidity
00:00 +18°C° 3.1 mm 7 mps 756 mmHg 80%
01:00 +17°C° 3.1 mm 7 mps 755 mmHg 85%
02:00 +18°C° 4.7 mm 7 mps 755 mmHg 85%
03:00 +18°C° 4.7 mm 7 mps 755 mmHg 86%
04:00 +19°C° 4.7 mm 6 mps 755 mmHg 86%
05:00 +19°C° 0.8 mm 5 mps 755 mmHg 84%
06:00 +19°C° 0.8 mm 4 mps 756 mmHg 83%
07:00 +20°C° 0.8 mm 3 mps 756 mmHg 81%
08:00 +21°C° 0.4 mm 4 mps 757 mmHg 73%
09:00 +23°C° 0.4 mm 5 mps 757 mmHg 65%
10:00 +24°C° 0.4 mm 6 mps 757 mmHg 57%
11:00 +24°C° 0.3 mm 7 mps 757 mmHg 55%
12:00 +26°C° 0.3 mm 8 mps 757 mmHg 53%
13:00 +26°C° 0.3 mm 9 mps 757 mmHg 51%
14:00 +26°C° 0.3 mm 9 mps 757 mmHg 53%
15:00 +24°C° 0.3 mm 9 mps 757 mmHg 55%
16:00 +23°C° 0.3 mm 9 mps 757 mmHg 57%
17:00 +22°C° 0.7 mm 8 mps 757 mmHg 62%
18:00 +22°C° 0.7 mm 8 mps 758 mmHg 67%
19:00 +21°C° 0.7 mm 7 mps 758 mmHg 71%
20:00 +20°C° 0.9 mm 6 mps 758 mmHg 73%
21:00 +20°C° 0.9 mm 5 mps 759 mmHg 75%
22:00 +20°C° 0.9 mm 4 mps 759 mmHg 76%
23:00 +19°C° 1.2 mm 4 mps 759 mmHg 77%

29 September, Tuesday

Time Temperature Precipitation Wind Pressure Humidity
00:00 +19°C° 1.2 mm 3 mps 759 mmHg 78%
01:00 +19°C° 1.2 mm 3 mps 759 mmHg 79%
02:00 +18°C° 0.8 mm 3 mps 759 mmHg 80%
03:00 +18°C° 0.8 mm 2 mps 759 mmHg 81%
04:00 +18°C° 0.8 mm 2 mps 759 mmHg 81%
05:00 +18°C° 0.2 mm 2 mps 760 mmHg 79%
06:00 +20°C° 0.2 mm 1 mps 760 mmHg 76%
07:00 +20°C° 0.2 mm 1 mps 760 mmHg 74%
08:00 +21°C° 0.1 mm 1 mps 760 mmHg 69%
09:00 +21°C° 0.1 mm 2 mps 760 mmHg 64%
10:00 +23°C° 0.1 mm 2 mps 760 mmHg 59%
11:00 +24°C° 0 mm 2 mps 760 mmHg 57%
12:00 +24°C° 0 mm 3 mps 760 mmHg 54%
13:00 +24°C° 0 mm 3 mps 760 mmHg 52%
14:00 +24°C° 0 mm 3 mps 760 mmHg 53%
15:00 +24°C° 0 mm 3 mps 760 mmHg 53%
16:00 +23°C° 0 mm 4 mps 760 mmHg 53%
17:00 +21°C° 0 mm 3 mps 760 mmHg 58%
18:00 +20°C° 0 mm 3 mps 760 mmHg 62%
19:00 +19°C° 0 mm 2 mps 761 mmHg 67%
20:00 +19°C° 0 mm 2 mps 761 mmHg 68%
21:00 +18°C° 0 mm 2 mps 760 mmHg 69%
22:00 +19°C° 0 mm 1 mps 760 mmHg 70%
23:00 +19°C° 0 mm 1 mps 760 mmHg 71%

30 September, Wednesday

Time Temperature Precipitation Wind Pressure Humidity
00:00 +18°C° 0 mm 1 mps 760 mmHg 72%
01:00 +18°C° 0 mm 1 mps 760 mmHg 72%
02:00 +18°C° 0 mm 1 mps 760 mmHg 72%
03:00 +18°C° 0 mm 1 mps 759 mmHg 72%
04:00 +17°C° 0 mm 2 mps 759 mmHg 71%
05:00 +17°C° 0 mm 2 mps 759 mmHg 69%
06:00 +18°C° 0 mm 2 mps 759 mmHg 68%
07:00 +18°C° 0 mm 2 mps 759 mmHg 66%
08:00 +20°C° 0 mm 2 mps 759 mmHg 62%
09:00 +21°C° 0 mm 2 mps 758 mmHg 58%
10:00 +23°C° 0 mm 2 mps 758 mmHg 53%
11:00 +24°C° 0 mm 2 mps 758 mmHg 53%
12:00 +24°C° 0 mm 3 mps 757 mmHg 52%
13:00 +25°C° 0 mm 3 mps 757 mmHg 51%
14:00 +24°C° 0 mm 3 mps 757 mmHg 54%
15:00 +24°C° 0 mm 3 mps 756 mmHg 56%
16:00 +22°C° 0 mm 3 mps 756 mmHg 59%
17:00 +21°C° 0 mm 3 mps 756 mmHg 64%
18:00 +20°C° 0 mm 2 mps 756 mmHg 68%
19:00 +19°C° 0 mm 2 mps 756 mmHg 73%
20:00 +19°C° 0 mm 2 mps 756 mmHg 74%
21:00 +19°C° 0 mm 1 mps 756 mmHg 75%
22:00 +19°C° 0 mm 1 mps 757 mmHg 76%
23:00 +19°C° 0 mm 1 mps 756 mmHg 76%
Show more